Date String (YYYY-MM-DD hh:mm:ss) UTC,Instrument flags,Ambient pressure (hPa),Sample flow (lpm),Bypass flow (lpm),Sample temperature (°C),Ambient temperature (°C),ASC tube jacket temperature (°C),LED temperature (°C),Box temperature (°C),Sample RH (%),Span deviation,Mass concentration (μg/m³),Mass concentration (μg/m³),Mass concentration (μg/m³)
DateTimeUTC,F1_M11,P_M11,Q1_M11,Q2_M11,T1_M11,T2_M11,T3_M11,T4_M11,T5_M11,U1_M11,ZSPAN_M11,X2_M11,X0_M11,X1_M11
2022-01-16 13:00:00,,0825.1,5.02,0.00,22.5,21.8,00.0,31.5,24.2,05.1,0000.0,0002.89,0003.67,0002.69
2022-01-16 13:01:00,,0825.1,4.99,0.00,22.5,21.7,00.0,31.5,24.2,05.1,0000.0,0002.91,0003.70,0002.69
2022-01-16 13:02:00,,0825.1,5.00,0.00,22.4,21.7,00.0,31.5,24.2,05.1,0000.0,0002.95,0003.73,0002.70
2022-01-16 13:03:00,,0825.1,4.99,0.00,22.4,21.7,00.0,31.5,24.2,05.1,0000.0,0002.96,0003.68,0002.71
2022-01-16 13:04:00,,0825.1,4.99,0.00,22.4,21.7,00.0,31.5,24.2,05.2,0000.0,0002.96,0003.70,0002.69
2022-01-16 13:05:00,,0825.1,5.01,0.00,22.4,21.7,00.0,31.5,24.2,05.2,0000.0,0002.93,0003.64,0002.68
2022-01-16 13:06:00,,0825.1,5.00,0.00,22.4,21.7,00.0,31.5,24.2,05.1,0000.0,0002.95,0003.89,0002.71
2022-01-16 13:07:00,,0825.2,5.00,0.00,22.4,21.7,00.0,31.5,24.2,05.1,0000.0,0003.02,0005.23,0002.73
2022-01-16 13:08:00,,0825.2,5.00,0.00,22.4,21.7,00.0,31.5,24.1,05.1,0000.0,0003.00,0005.28,0002.72
2022-01-16 13:09:00,,0825.2,5.01,0.00,22.4,21.7,00.0,31.5,24.1,05.1,0000.0,0002.98,0005.19,0002.70
2022-01-16 13:10:00,,0825.1,5.00,0.00,22.4,21.7,00.0,31.4,24.1,05.0,0000.0,0002.98,0005.21,0002.69
2022-01-16 13:11:00,,0825.1,5.00,0.00,22.4,21.7,00.0,31.4,24.1,05.0,0000.0,0002.99,0005.20,0002.68
2022-01-16 13:12:00,,0825.1,4.99,0.00,22.4,21.7,00.0,31.4,24.1,05.0,0000.0,0003.01,0005.25,0002.67
2022-01-16 13:13:00,,0825.1,5.00,0.00,22.4,21.7,00.0,31.4,24.1,05.0,0000.0,0003.01,0005.30,0002.67
2022-01-16 13:14:00,,0825.2,4.99,0.00,22.4,21.6,00.0,31.4,24.1,05.0,0000.0,0003.03,0005.63,0002.66
2022-01-16 13:15:00,,0825.1,5.01,0.00,22.4,21.6,00.0,31.4,24.1,05.1,0000.0,0003.05,0005.93,0002.67
2022-01-16 13:16:00,,0825.1,4.99,0.00,22.4,21.6,00.0,31.4,24.1,05.0,0000.0,0003.08,0005.95,0002.69
2022-01-16 13:17:00,,0825.2,5.00,0.00,22.4,21.6,00.0,31.4,24.1,05.0,0000.0,0003.08,0006.00,0002.69
2022-01-16 13:18:00,,0825.2,5.02,0.00,22.4,21.7,00.0,31.4,24.1,04.9,0000.0,0002.99,0004.77,0002.64
2022-01-16 13:19:00,,0825.2,5.00,0.00,22.4,22.1,00.0,31.4,24.2,04.9,0000.0,0002.95,0004.33,0002.62
2022-01-16 13:20:00,,0825.2,4.99,0.00,22.6,22.9,00.0,31.5,24.5,04.9,0000.0,0003.01,0004.46,0002.63
2022-01-16 13:21:00,,0825.2,5.00,0.00,22.7,23.2,00.0,31.5,24.7,04.9,0000.0,0003.01,0004.47,0002.63
2022-01-16 13:22:00,,0825.2,5.00,0.00,22.7,23.1,00.0,31.5,24.7,04.8,0000.0,0002.97,0004.41,0002.62
2022-01-16 13:23:00,,0825.2,5.00,0.00,22.7,22.9,00.0,31.5,24.7,04.8,0000.0,0002.91,0004.33,0002.60
2022-01-16 13:24:00,,0825.2,5.00,0.00,22.7,22.7,00.0,31.6,24.6,04.9,0000.0,0002.89,0004.28,0002.58
2022-01-16 13:25:00,,0825.2,5.01,0.00,22.7,22.6,00.0,31.6,24.6,04.9,0000.0,0002.85,0004.07,0002.58
2022-01-16 13:26:00,,0825.2,4.99,0.00,22.7,22.5,00.0,31.6,24.6,04.9,0000.0,0002.86,0003.67,0002.60
2022-01-16 13:27:00,,0825.2,5.01,0.00,22.7,22.4,00.0,31.6,24.5,04.9,0000.0,0002.88,0003.77,0002.61
2022-01-16 13:28:00,,0825.1,4.99,0.00,22.7,22.3,00.0,31.6,24.5,04.9,0000.0,0002.88,0003.78,0002.61
2022-01-16 13:29:00,,0825.1,5.01,0.00,22.7,22.2,00.0,31.6,24.5,04.8,0000.0,0002.90,0003.70,0002.63
2022-01-16 13:30:00,,0825.1,5.00,0.00,22.7,22.1,00.0,31.6,24.5,04.8,0000.0,0002.93,0003.73,0002.66
2022-01-16 13:31:00,,0825.1,4.99,0.00,22.7,22.1,00.0,31.6,24.4,04.8,0000.0,0002.89,0003.64,0002.66
2022-01-16 13:32:00,,0825.1,5.02,0.00,22.7,22.0,00.0,31.6,24.4,04.8,0000.0,0002.89,0003.68,0002.65
2022-01-16 13:33:00,,0825.2,4.99,0.00,22.7,22.0,00.0,31.6,24.4,04.8,0000.0,0002.88,0003.73,0002.64
2022-01-16 13:34:00,,0825.2,5.00,0.00,22.6,22.0,00.0,31.6,24.4,04.8,0000.0,0002.86,0003.74,0002.63
2022-01-16 13:35:00,,0825.2,4.99,0.00,22.6,21.9,00.0,31.6,24.4,04.8,0000.0,0002.87,0003.83,0002.63
2022-01-16 13:36:00,,0825.1,5.00,0.00,22.6,21.9,00.0,31.6,24.3,04.8,0000.0,0002.86,0003.84,0002.61
2022-01-16 13:37:00,,0825.1,5.00,0.00,22.6,21.9,00.0,31.6,24.4,04.8,0000.0,0002.78,0003.61,0002.58
2022-01-16 13:38:00,,0825.2,5.00,0.00,22.6,21.9,00.0,31.6,24.3,04.8,0000.0,0002.71,0003.47,0002.54
2022-01-16 13:39:00,,0825.2,5.00,0.00,22.6,21.9,00.0,31.6,24.3,05.2,0000.0,0002.71,0003.60,0002.52
2022-01-16 13:40:00,,0825.2,5.00,0.00,22.6,21.9,00.0,31.6,24.3,04.9,0000.0,0002.71,0003.68,0002.49
2022-01-16 13:41:00,,0825.1,5.02,0.00,22.6,21.8,00.0,31.6,24.3,04.9,0000.0,0002.67,0003.63,0002.45
2022-01-16 13:42:00,,0825.1,4.98,0.00,22.6,21.8,00.0,31.6,24.3,04.8,0000.0,0002.62,0003.55,0002.42
2022-01-16 13:43:00,,0825.1,5.01,0.00,22.5,21.8,00.0,31.6,24.3,04.8,0000.0,0002.59,0003.42,0002.39
2022-01-16 13:44:00,,0825.2,4.99,0.00,22.5,21.8,00.0,31.6,24.3,04.9,0000.0,0002.58,0003.42,0002.37
2022-01-16 13:45:00,,0825.2,5.02,0.00,22.5,21.8,00.0,31.6,24.2,05.0,0000.0,0002.59,0003.49,0002.38
2022-01-16 13:46:00,,0825.2,4.98,0.00,22.5,21.8,00.0,31.6,24.2,04.8,0000.0,0002.57,0003.41,0002.35
2022-01-16 13:47:00,,0825.2,5.02,0.00,22.5,21.8,00.0,31.5,24.2,04.4,0000.0,0002.53,0003.52,0002.29
2022-01-16 13:48:00,,0825.2,4.99,0.00,22.5,21.8,00.0,31.5,24.2,04.6,0000.0,0002.46,0003.46,0002.21
2022-01-16 13:49:00,,0825.2,5.02,0.00,22.5,21.8,00.0,31.5,24.2,04.7,0000.0,0002.43,0003.42,0002.18
2022-01-16 13:50:00,,0825.3,4.98,0.00,22.5,21.7,00.0,31.5,24.2,04.5,0000.0,0002.34,0003.20,0002.11
2022-01-16 13:51:00,,0825.2,5.01,0.00,22.4,21.7,00.0,31.5,24.2,04.3,0000.0,0002.25,0003.04,0002.05
2022-01-16 13:52:00,,0825.2,5.00,0.00,22.4,21.7,00.0,31.5,24.2,04.2,0000.0,0002.14,0002.91,0001.94
2022-01-16 13:53:00,,0825.2,5.00,0.00,22.4,21.7,00.0,31.5,24.2,04.1,0000.0,0002.07,0002.88,0001.84
2022-01-16 13:54:00,,0825.2,5.01,0.00,22.4,21.7,00.0,31.5,24.2,04.6,0000.0,0001.97,0002.78,0001.75
2022-01-16 13:55:00,,0825.2,5.01,0.00,22.4,21.7,00.0,31.5,24.2,05.1,0000.0,0001.93,0002.79,0001.70
2022-01-16 13:56:00,,0825.2,4.99,0.00,22.4,21.7,00.0,31.5,24.2,04.4,0000.0,0001.84,0002.60,0001.61
2022-01-16 13:57:00,,0825.2,5.01,0.00,22.4,21.7,00.0,31.5,24.2,04.1,0000.0,0001.69,0002.39,0001.49
2022-01-16 13:58:00,,0825.2,4.99,0.00,22.4,21.7,00.0,31.5,24.2,04.1,0000.0,0001.59,0002.13,0001.42
2022-01-16 13:59:00,,0825.3,5.00,0.00,22.4,21.7,00.0,31.5,24.2,04.4,0000.0,0001.53,0002.03,0001.38
